Regional Weather Roundup
Issued by NWS

Home | Current Version | Previous Version | Text Only | Print | Product List | Glossary Off
Versions: 1 2 3 4 5 6 7 8 9 10 11 12 13 14 15 16 17 18 19 20 21 22 23 24 25 26 27 28 29 30 31 32 33 34 35 36 37 38 39 40 41 42 43 44 45 46 47 48 49 50

000
ASUS43 KBIS 040610
RWRND

NORTH DAKOTA REGIONAL WEATHER ROUNDUP
NATIONAL WEATHER SERVICE BISMARCK ND
100 AM CDT MON MAY 04 2015

NOTE: "FAIR" INDICATES FEW OR NO CLOUDS BELOW 12,000 FEET WITH NO
SIGNIFICANT WEATHER AND/OR OBSTRUCTIONS TO VISIBILITY.


NDZ001>003-009>011-017-040700-
NORTHWEST NORTH DAKOTA

CITY           SKY/WX    TMP DP  RH WIND       PRES   REMARKS
WILLISTON      CLEAR     41  22  46 SE3       30.12R
6HR MIN TEMP:  35; 6HR MAX TEMP:  63; 6HR PCP: TRACE;

MINOT          CLEAR     41  26  55 SW7       30.10R
MINOT AFB      CLEAR     35  26  71 NW8       30.10R
$$

NDZ018>021-031>035-040>046-040700-
SOUTHWEST NORTH DAKOTA

CITY           SKY/WX    TMP DP  RH WIND       PRES   REMARKS
BISMARCK       CLEAR     44  25  47 CALM      30.12R
6HR MIN TEMP:  39; 6HR MAX TEMP:  65;

DICKINSON      PTCLDY    40  26  57 E6        30.10R
GARRISON         N/A     39  27  62 NW8       30.11R
6HR MIN TEMP:  37; 6HR MAX TEMP:  64;

HETTINGER ARPT PTCLDY    37  26  64 CALM      30.12S
$$

NDZ004>008-012>016-024-026-027-054-040700-
NORTHEAST NORTH DAKOTA

CITY           SKY/WX    TMP DP  RH WIND       PRES   REMARKS
GRAND FORKS    CLEAR     40  29  64 NW6       30.05R
GRND FRKS AFB  CLEAR     40  25  54 N5        30.06R
DEVILS LAKE    CLEAR     41  30  65 NW8       30.08R
$$

NDZ022-023-025-028>030-036>039-047>053-040700-
SOUTHEAST NORTH DAKOTA

CITY           SKY/WX    TMP DP  RH WIND       PRES   REMARKS
FARGO          CLEAR     45  25  45 N9        30.05R
6HR MIN TEMP:  45; 6HR MAX TEMP:  68;

JAMESTOWN      CLEAR     40  27  59 NW9       30.07R
$$




USA.gov is the U.S. government's official web portal to all federal, state and local government web resources and services.